Year,Month,Day,Hour,Minute,Value (Times are PST for barometer in hPa)
2015,08,29,00,00,1003.34
2015,08,29,00,01,1003.32
2015,08,29,00,02,1003.32
2015,08,29,00,03,1003.32
2015,08,29,00,04,1003.32
2015,08,29,00,05,1003.32
2015,08,29,00,06,1003.32
2015,08,29,00,07,1003.32
2015,08,29,00,08,1003.32
2015,08,29,00,09,1003.32
2015,08,29,00,10,1003.32
2015,08,29,00,11,1003.32
2015,08,29,00,12,1003.32
2015,08,29,00,13,1003.32
2015,08,29,00,14,1003.32
2015,08,29,00,15,1002.98
2015,08,29,00,16,1002.98
2015,08,29,00,17,1002.98
2015,08,29,00,18,1002.98
2015,08,29,00,19,1002.98
2015,08,29,00,20,1002.98
2015,08,29,00,21,1002.98
2015,08,29,00,22,1002.98
2015,08,29,00,23,1002.98
2015,08,29,00,24,1002.98
2015,08,29,00,25,1002.98
2015,08,29,00,26,1002.98
2015,08,29,00,27,1002.98
2015,08,29,00,28,1002.98
2015,08,29,00,29,1002.98
2015,08,29,00,30,1002.68
2015,08,29,00,31,1002.68
2015,08,29,00,32,1002.68
2015,08,29,00,33,1002.68
2015,08,29,00,34,1002.68
2015,08,29,00,35,1002.68
2015,08,29,00,36,1002.68
2015,08,29,00,37,1002.68
2015,08,29,00,38,1002.68
2015,08,29,00,39,1002.68
2015,08,29,00,40,1002.68
2015,08,29,00,41,1002.68
2015,08,29,00,42,1002.68
2015,08,29,00,43,1002.68
2015,08,29,00,44,1002.68
2015,08,29,00,45,1002.20
2015,08,29,00,46,1002.20
2015,08,29,00,47,1002.20
2015,08,29,00,48,1002.20
2015,08,29,00,49,1002.20
2015,08,29,00,50,1002.20
2015,08,29,00,51,1002.20
2015,08,29,00,52,1002.20
2015,08,29,00,53,1002.20
2015,08,29,00,54,1002.20
2015,08,29,00,55,1002.20
2015,08,29,00,56,1002.20
2015,08,29,00,57,1002.20
2015,08,29,00,58,1002.20
2015,08,29,00,59,1002.20
2015,08,29,01,00,1002.03
2015,08,29,01,01,1002.03
2015,08,29,01,02,1002.03
2015,08,29,01,03,1002.03
2015,08,29,01,04,1002.03
2015,08,29,01,05,1002.03
2015,08,29,01,06,1002.03
2015,08,29,01,07,1002.03
2015,08,29,01,08,1002.03
2015,08,29,01,09,1002.03
2015,08,29,01,10,1002.03
2015,08,29,01,11,1002.03
2015,08,29,01,12,1002.03
2015,08,29,01,13,1002.03
2015,08,29,01,14,1002.00
2015,08,29,01,15,1001.46
2015,08,29,01,16,1001.46
2015,08,29,01,17,1001.46
2015,08,29,01,18,1001.46
2015,08,29,01,19,1001.46
2015,08,29,01,20,1001.46
2015,08,29,01,21,1001.46
2015,08,29,01,22,1001.46
2015,08,29,01,23,1001.46
2015,08,29,01,24,1001.46
2015,08,29,01,25,1001.46
2015,08,29,01,26,1001.46
2015,08,29,01,27,1001.46
2015,08,29,01,28,1001.46
2015,08,29,01,29,1001.46
2015,08,29,01,30,1001.05
2015,08,29,01,31,1001.05
2015,08,29,01,32,1001.05
2015,08,29,01,33,1001.05
2015,08,29,01,34,1001.05
2015,08,29,01,35,1001.05
2015,08,29,01,36,1001.05
2015,08,29,01,37,1001.05
2015,08,29,01,38,1001.05
2015,08,29,01,39,1001.05
2015,08,29,01,40,1001.05
2015,08,29,01,41,1001.05
2015,08,29,01,42,1001.05
2015,08,29,01,43,1001.05
2015,08,29,01,44,1001.04
2015,08,29,01,45,1000.95
2015,08,29,01,46,1000.95
2015,08,29,01,47,1000.95
2015,08,29,01,48,1000.95
2015,08,29,01,49,1000.95
2015,08,29,01,50,1000.95
2015,08,29,01,51,1000.95
2015,08,29,01,52,1000.95
2015,08,29,01,53,1000.95
2015,08,29,01,54,1000.95
2015,08,29,01,55,1000.95
2015,08,29,01,56,1000.95
2015,08,29,01,57,1000.95
2015,08,29,01,58,1000.95
2015,08,29,01,59,1000.95
2015,08,29,02,00,1001.12
2015,08,29,02,01,1001.12
2015,08,29,02,02,1001.12
2015,08,29,02,03,1001.12
2015,08,29,02,04,1001.12
2015,08,29,02,05,1001.12
2015,08,29,02,06,1001.12
2015,08,29,02,07,1001.12
2015,08,29,02,08,1001.12
2015,08,29,02,09,1001.12
2015,08,29,02,10,1001.12
2015,08,29,02,11,1001.12
2015,08,29,02,12,1001.12
2015,08,29,02,13,1001.12
2015,08,29,02,14,1001.10
2015,08,29,02,15,1000.75
2015,08,29,02,16,1000.75
2015,08,29,02,17,1000.75
2015,08,29,02,18,1000.75
2015,08,29,02,19,1000.75
2015,08,29,02,20,1000.75
2015,08,29,02,21,1000.75
2015,08,29,02,22,1000.75
2015,08,29,02,23,1000.75
2015,08,29,02,24,1000.75
2015,08,29,02,25,1000.75
2015,08,29,02,26,1000.75
2015,08,29,02,27,1000.75
2015,08,29,02,28,1000.75
2015,08,29,02,29,1000.75
2015,08,29,02,30,1000.00
2015,08,29,02,31,1000.00
2015,08,29,02,32,1000.00
2015,08,29,02,33,1000.00
2015,08,29,02,34,1000.00
2015,08,29,02,35,1000.00
2015,08,29,02,36,1000.00
2015,08,29,02,37,1000.00
2015,08,29,02,38,1000.00
2015,08,29,02,39,1000.00
2015,08,29,02,40,1000.00
2015,08,29,02,41,1000.00
2015,08,29,02,42,1000.00
2015,08,29,02,43,1000.00
2015,08,29,02,44,1000.00
2015,08,29,02,45,998.92
2015,08,29,02,46,998.92
2015,08,29,02,47,998.92
2015,08,29,02,48,998.92
2015,08,29,02,49,998.92
2015,08,29,02,50,998.92
2015,08,29,02,51,998.92
2015,08,29,02,52,998.92
2015,08,29,02,53,998.92
2015,08,29,02,54,998.92
2015,08,29,02,55,998.92
2015,08,29,02,56,998.92
2015,08,29,02,57,998.92
2015,08,29,02,58,998.92
2015,08,29,02,59,998.92
2015,08,29,03,00,998.71
2015,08,29,03,01,998.71
2015,08,29,03,02,998.71
2015,08,29,03,03,998.71
2015,08,29,03,04,998.71
2015,08,29,03,05,998.71
2015,08,29,03,06,998.71
2015,08,29,03,07,998.71
2015,08,29,03,08,998.71
2015,08,29,03,09,998.71
2015,08,29,03,10,998.71
2015,08,29,03,11,998.71
2015,08,29,03,12,998.71
2015,08,29,03,13,998.71
2015,08,29,03,14,998.72
2015,08,29,03,15,998.95
2015,08,29,03,16,998.95
2015,08,29,03,17,998.95
2015,08,29,03,18,998.95
2015,08,29,03,19,998.95
2015,08,29,03,20,998.95
2015,08,29,03,21,998.95
2015,08,29,03,22,998.95
2015,08,29,03,23,998.95
2015,08,29,03,24,998.95
2015,08,29,03,25,998.95
2015,08,29,03,26,998.95
2015,08,29,03,27,998.95
2015,08,29,03,28,998.95
2015,08,29,03,29,998.95
2015,08,29,03,30,998.75
2015,08,29,03,31,998.75
2015,08,29,03,32,998.75
2015,08,29,03,33,998.75
2015,08,29,03,34,998.75
2015,08,29,03,35,998.75
2015,08,29,03,36,998.75
2015,08,29,03,37,998.75
2015,08,29,03,38,998.75
2015,08,29,03,39,998.75
2015,08,29,03,40,998.75
2015,08,29,03,41,998.75
2015,08,29,03,42,998.75
2015,08,29,03,43,998.75
2015,08,29,03,44,998.75
2015,08,29,03,45,998.58
2015,08,29,03,46,998.58
2015,08,29,03,47,998.58
2015,08,29,03,48,998.58
2015,08,29,03,49,998.58
2015,08,29,03,50,998.58
2015,08,29,03,51,998.58
2015,08,29,03,52,998.58
2015,08,29,03,53,998.58
2015,08,29,03,54,998.58
2015,08,29,03,55,998.58
2015,08,29,03,56,998.58
2015,08,29,03,57,998.58
2015,08,29,03,58,998.58
2015,08,29,03,59,998.58
2015,08,29,04,00,997.56
2015,08,29,04,01,997.56
2015,08,29,04,02,997.56
2015,08,29,04,03,997.56
2015,08,29,04,04,997.56
2015,08,29,04,05,997.56
2015,08,29,04,06,997.56
2015,08,29,04,07,997.56
2015,08,29,04,08,997.56
2015,08,29,04,09,997.56
2015,08,29,04,10,997.56
2015,08,29,04,11,997.56
2015,08,29,04,12,997.56
2015,08,29,04,13,997.56
2015,08,29,04,14,997.56
2015,08,29,04,15,997.22
2015,08,29,04,16,997.22
2015,08,29,04,17,997.22
2015,08,29,04,18,997.22
2015,08,29,04,19,997.22
2015,08,29,04,20,997.22
2015,08,29,04,21,997.22
2015,08,29,04,22,997.22
2015,08,29,04,23,997.22
2015,08,29,04,24,997.22
2015,08,29,04,25,997.22
2015,08,29,04,26,997.22
2015,08,29,04,27,997.22
2015,08,29,04,28,997.22
2015,08,29,04,29,997.19
2015,08,29,04,30,996.68
2015,08,29,04,31,996.68
2015,08,29,04,32,996.68
2015,08,29,04,33,996.68
2015,08,29,04,34,996.68
2015,08,29,04,35,996.68
2015,08,29,04,36,996.68
2015,08,29,04,37,996.68
2015,08,29,04,38,996.68
2015,08,29,04,39,996.68
2015,08,29,04,40,996.68
2015,08,29,04,41,996.68
2015,08,29,04,42,996.68
2015,08,29,04,43,996.68
2015,08,29,04,44,996.68
2015,08,29,04,45,996.24
2015,08,29,04,46,996.24
2015,08,29,04,47,996.24
2015,08,29,04,48,996.24
2015,08,29,04,49,996.24
2015,08,29,04,50,996.24
2015,08,29,04,51,996.24
2015,08,29,04,52,996.24
2015,08,29,04,53,996.24
2015,08,29,04,54,996.24
2015,08,29,04,55,996.24
2015,08,29,04,56,996.24
2015,08,29,04,57,996.24
2015,08,29,04,58,996.24
2015,08,29,04,59,996.24
2015,08,29,05,00,996.24
2015,08,29,05,01,996.24
2015,08,29,05,02,996.24
2015,08,29,05,03,996.24
2015,08,29,05,04,996.24
2015,08,29,05,05,996.24
2015,08,29,05,06,996.24
2015,08,29,05,07,996.24
2015,08,29,05,08,996.24
2015,08,29,05,09,996.24
2015,08,29,05,10,996.24
2015,08,29,05,11,996.24
2015,08,29,05,12,996.24
2015,08,29,05,13,996.24
2015,08,29,05,14,996.24
2015,08,29,05,15,996.24
2015,08,29,05,16,996.24
2015,08,29,05,17,996.24
2015,08,29,05,18,996.24
2015,08,29,05,19,996.24
2015,08,29,05,20,996.24
2015,08,29,05,21,996.24
2015,08,29,05,22,996.24
2015,08,29,05,23,996.24
2015,08,29,05,24,996.24
2015,08,29,05,25,996.24
2015,08,29,05,26,996.24
2015,08,29,05,27,996.24
2015,08,29,05,28,996.24
2015,08,29,05,29,996.24
2015,08,29,05,30,996.38
2015,08,29,05,31,996.38
2015,08,29,05,32,996.38
2015,08,29,05,33,996.38
2015,08,29,05,34,996.38
2015,08,29,05,35,996.38
2015,08,29,05,36,996.38
2015,08,29,05,37,996.38
2015,08,29,05,38,996.38
2015,08,29,05,39,996.38
2015,08,29,05,40,996.38
2015,08,29,05,41,996.38
2015,08,29,05,42,996.38
2015,08,29,05,43,996.38
2015,08,29,05,44,996.38
2015,08,29,05,45,998.14
2015,08,29,05,46,998.14
2015,08,29,05,47,998.14
2015,08,29,05,48,998.14
2015,08,29,05,49,998.14
2015,08,29,05,50,998.14
2015,08,29,05,51,998.14
2015,08,29,05,52,998.14
2015,08,29,05,53,998.14
2015,08,29,05,54,998.14
2015,08,29,05,55,998.14
2015,08,29,05,56,998.14
2015,08,29,05,57,998.14
2015,08,29,05,58,998.14
2015,08,29,05,59,998.07
2015,08,29,06,00,996.75
2015,08,29,06,01,996.75
2015,08,29,06,02,996.75
2015,08,29,06,03,996.75
2015,08,29,06,04,996.75
2015,08,29,06,05,996.75
2015,08,29,06,06,996.75
2015,08,29,06,07,996.75
2015,08,29,06,08,996.75
2015,08,29,06,09,996.75
2015,08,29,06,10,996.75
2015,08,29,06,11,996.75
2015,08,29,06,12,996.75
2015,08,29,06,13,996.75
2015,08,29,06,14,996.75
2015,08,29,06,15,996.72
2015,08,29,06,16,996.72
2015,08,29,06,17,996.72
2015,08,29,06,18,996.72
2015,08,29,06,19,996.72
2015,08,29,06,20,996.72
2015,08,29,06,21,996.72
2015,08,29,06,22,996.72
2015,08,29,06,23,996.72
2015,08,29,06,24,996.72
2015,08,29,06,25,996.72
2015,08,29,06,26,996.72
2015,08,29,06,27,996.72
2015,08,29,06,28,996.72
2015,08,29,06,29,996.72
2015,08,29,06,30,995.87
2015,08,29,06,31,995.87
2015,08,29,06,32,995.87
2015,08,29,06,33,995.87
2015,08,29,06,34,995.87
2015,08,29,06,35,995.87
2015,08,29,06,36,995.87
2015,08,29,06,37,995.87
2015,08,29,06,38,995.87
2015,08,29,06,39,995.87
2015,08,29,06,40,995.87
2015,08,29,06,41,995.87
2015,08,29,06,42,995.87
2015,08,29,06,43,995.87
2015,08,29,06,44,995.82
2015,08,29,06,45,994.89
2015,08,29,06,46,994.89
2015,08,29,06,47,994.89
2015,08,29,06,48,994.89
2015,08,29,06,49,994.89
2015,08,29,06,50,994.89
2015,08,29,06,51,994.89
2015,08,29,06,52,994.89
2015,08,29,06,53,994.89
2015,08,29,06,54,994.89
2015,08,29,06,55,994.89
2015,08,29,06,56,994.89
2015,08,29,06,57,994.89
2015,08,29,06,58,994.89
2015,08,29,06,59,994.88
2015,08,29,07,00,994.68
2015,08,29,07,01,994.68
2015,08,29,07,02,994.68
2015,08,29,07,03,994.68
2015,08,29,07,04,994.68
2015,08,29,07,05,994.68
2015,08,29,07,06,994.68
2015,08,29,07,07,994.68
2015,08,29,07,08,994.68
2015,08,29,07,09,994.68
2015,08,29,07,10,994.68
2015,08,29,07,11,994.68
2015,08,29,07,12,994.68
2015,08,29,07,13,994.68
2015,08,29,07,14,994.68
2015,08,29,07,15,994.72
2015,08,29,07,16,994.72
2015,08,29,07,17,994.72
2015,08,29,07,18,994.72
2015,08,29,07,19,994.72
2015,08,29,07,20,994.72
2015,08,29,07,21,994.72
2015,08,29,07,22,994.72
2015,08,29,07,23,994.72
2015,08,29,07,24,994.72
2015,08,29,07,25,994.72
2015,08,29,07,26,994.72
2015,08,29,07,27,994.72
2015,08,29,07,28,994.72
2015,08,29,07,29,994.73
2015,08,29,07,30,994.85
2015,08,29,07,31,994.85
2015,08,29,07,32,994.85
2015,08,29,07,33,994.85
2015,08,29,07,34,994.85
2015,08,29,07,35,994.85
2015,08,29,07,36,994.85
2015,08,29,07,37,994.85
2015,08,29,07,38,994.85
2015,08,29,07,39,994.85
2015,08,29,07,40,994.85
2015,08,29,07,41,994.85
2015,08,29,07,42,994.85
2015,08,29,07,43,994.85
2015,08,29,07,44,994.85
2015,08,29,07,45,994.55
2015,08,29,07,46,994.55
2015,08,29,07,47,994.55
2015,08,29,07,48,994.55
2015,08,29,07,49,994.55
2015,08,29,07,50,994.55
2015,08,29,07,51,994.55
2015,08,29,07,52,994.55
2015,08,29,07,53,994.55
2015,08,29,07,54,994.55
2015,08,29,07,55,994.55
2015,08,29,07,56,994.55
2015,08,29,07,57,994.55
2015,08,29,07,58,994.55
2015,08,29,07,59,994.55
2015,08,29,08,00,994.96
2015,08,29,08,01,994.96
2015,08,29,08,02,994.96
2015,08,29,08,03,994.96
2015,08,29,08,04,994.96
2015,08,29,08,05,994.96
2015,08,29,08,06,994.96
2015,08,29,08,07,994.96
2015,08,29,08,08,994.96
2015,08,29,08,09,994.96
2015,08,29,08,10,994.96
2015,08,29,08,11,994.96
2015,08,29,08,12,994.96
2015,08,29,08,13,994.96
2015,08,29,08,14,994.96
2015,08,29,08,15,995.06
2015,08,29,08,16,995.06
2015,08,29,08,17,995.06
2015,08,29,08,18,995.06
2015,08,29,08,19,995.06
2015,08,29,08,20,995.06
2015,08,29,08,21,995.06
2015,08,29,08,22,995.06
2015,08,29,08,23,995.06
2015,08,29,08,24,995.06
2015,08,29,08,25,995.06
2015,08,29,08,26,995.06
2015,08,29,08,27,995.06
2015,08,29,08,28,995.06
2015,08,29,08,29,995.05
2015,08,29,08,30,994.89
2015,08,29,08,31,994.89
2015,08,29,08,32,994.89
2015,08,29,08,33,994.89
2015,08,29,08,34,994.89
2015,08,29,08,35,994.89
2015,08,29,08,36,994.89
2015,08,29,08,37,994.89
2015,08,29,08,38,994.89
2015,08,29,08,39,994.89
2015,08,29,08,40,994.89
2015,08,29,08,41,994.89
2015,08,29,08,42,994.89
2015,08,29,08,43,994.89
2015,08,29,08,44,994.89
2015,08,29,08,45,995.16
2015,08,29,08,46,995.16
2015,08,29,08,47,995.16
2015,08,29,08,48,995.16
2015,08,29,08,49,995.16
2015,08,29,08,50,995.16
2015,08,29,08,51,995.16
2015,08,29,08,52,995.16
2015,08,29,08,53,995.16
2015,08,29,08,54,995.16
2015,08,29,08,55,995.16
2015,08,29,08,56,995.16
2015,08,29,08,57,995.16
2015,08,29,08,58,995.16
2015,08,29,08,59,995.16
2015,08,29,09,00,994.65
2015,08,29,09,01,994.65
2015,08,29,09,02,994.65
2015,08,29,09,03,994.65
2015,08,29,09,04,994.65
2015,08,29,09,05,994.65
2015,08,29,09,06,994.65
2015,08,29,09,07,994.65
2015,08,29,09,08,994.65
2015,08,29,09,09,994.65
2015,08,29,09,10,994.65
2015,08,29,09,11,994.65
2015,08,29,09,12,994.65
2015,08,29,09,13,994.65
2015,08,29,09,14,994.65
2015,08,29,09,15,994.14
2015,08,29,09,16,994.14
2015,08,29,09,17,994.14
2015,08,29,09,18,994.14
2015,08,29,09,19,994.14
2015,08,29,09,20,994.14
2015,08,29,09,21,994.14
2015,08,29,09,22,994.14
2015,08,29,09,23,994.14
2015,08,29,09,24,994.14
2015,08,29,09,25,994.14
2015,08,29,09,26,994.14
2015,08,29,09,27,994.14
2015,08,29,09,28,994.14
2015,08,29,09,29,994.14
2015,08,29,09,30,994.14
2015,08,29,09,31,994.14
2015,08,29,09,32,994.14
2015,08,29,09,33,994.14
2015,08,29,09,34,994.14
2015,08,29,09,35,994.14
2015,08,29,09,36,994.14
2015,08,29,09,37,994.14
2015,08,29,09,38,994.14
2015,08,29,09,39,994.14
2015,08,29,09,40,994.14
2015,08,29,09,41,994.14
2015,08,29,09,42,994.14
2015,08,29,09,43,994.14
2015,08,29,09,44,994.14
2015,08,29,09,45,994.28
2015,08,29,09,46,994.28
2015,08,29,09,47,994.28
2015,08,29,09,48,994.28
2015,08,29,09,49,994.28
2015,08,29,09,50,994.28
2015,08,29,09,51,994.28
2015,08,29,09,52,994.28
2015,08,29,09,53,994.28
2015,08,29,09,54,994.28
2015,08,29,09,55,994.28
2015,08,29,09,56,994.28
2015,08,29,09,57,994.28
2015,08,29,09,58,994.28
2015,08,29,09,59,994.28
2015,08,29,10,00,994.07
2015,08,29,10,01,994.07
2015,08,29,10,02,994.07
2015,08,29,10,03,994.07
2015,08,29,10,04,994.07
2015,08,29,10,05,994.07
2015,08,29,10,06,994.07
2015,08,29,10,07,994.07
2015,08,29,10,08,994.07
2015,08,29,10,09,994.07
2015,08,29,10,10,994.07
2015,08,29,10,11,994.07
2015,08,29,10,12,994.07
2015,08,29,10,13,994.07
2015,08,29,10,14,994.04
2015,08,29,10,15,993.50
2015,08,29,10,16,993.50
2015,08,29,10,17,993.50
2015,08,29,10,18,993.50
2015,08,29,10,19,993.50
2015,08,29,10,20,993.50
2015,08,29,10,21,993.50
2015,08,29,10,22,993.50
2015,08,29,10,23,993.50
2015,08,29,10,24,993.50
2015,08,29,10,25,993.50
2015,08,29,10,26,993.50
2015,08,29,10,27,993.50
2015,08,29,10,28,993.50
2015,08,29,10,29,993.50
2015,08,29,10,30,993.50
2015,08,29,10,31,993.50
2015,08,29,10,32,993.50
2015,08,29,10,33,993.50
2015,08,29,10,34,993.50
2015,08,29,10,35,993.50
2015,08,29,10,36,993.50
2015,08,29,10,37,993.50
2015,08,29,10,38,993.50
2015,08,29,10,39,993.50
2015,08,29,10,40,993.50
2015,08,29,10,41,993.50
2015,08,29,10,42,993.50
2015,08,29,10,43,993.50
2015,08,29,10,44,993.48
2015,08,29,10,45,993.09
2015,08,29,10,46,993.09
2015,08,29,10,47,993.09
2015,08,29,10,48,993.09
2015,08,29,10,49,993.09
2015,08,29,10,50,993.09
2015,08,29,10,51,993.09
2015,08,29,10,52,993.09
2015,08,29,10,53,993.09
2015,08,29,10,54,993.09
2015,08,29,10,55,993.09
2015,08,29,10,56,993.09
2015,08,29,10,57,993.09
2015,08,29,10,58,993.09
2015,08,29,10,59,993.09
2015,08,29,11,00,992.92
2015,08,29,11,01,992.92
2015,08,29,11,02,992.92
2015,08,29,11,03,992.92
2015,08,29,11,04,992.92
2015,08,29,11,05,992.92
2015,08,29,11,06,992.92
2015,08,29,11,07,992.92
2015,08,29,11,08,992.92
2015,08,29,11,09,992.92
2015,08,29,11,10,992.92
2015,08,29,11,11,992.92
2015,08,29,11,12,992.92
2015,08,29,11,13,992.92
2015,08,29,11,14,992.92
2015,08,29,11,15,992.89
2015,08,29,11,16,992.89
2015,08,29,11,17,992.89
2015,08,29,11,18,992.89
2015,08,29,11,19,992.89
2015,08,29,11,20,992.89
2015,08,29,11,21,992.89
2015,08,29,11,22,992.89
2015,08,29,11,23,992.89
2015,08,29,11,24,992.89
2015,08,29,11,25,992.89
2015,08,29,11,26,992.89
2015,08,29,11,27,992.89
2015,08,29,11,28,992.89
2015,08,29,11,29,992.89
2015,08,29,11,30,993.06
2015,08,29,11,31,993.06
2015,08,29,11,32,993.06
2015,08,29,11,33,993.06
2015,08,29,11,34,993.06
2015,08,29,11,35,993.06
2015,08,29,11,36,993.06
2015,08,29,11,37,993.06
2015,08,29,11,38,993.06
2015,08,29,11,39,993.06
2015,08,29,11,40,993.06
2015,08,29,11,41,993.06
2015,08,29,11,42,993.06
2015,08,29,11,43,993.06
2015,08,29,11,44,993.06
2015,08,29,11,45,993.97
2015,08,29,11,46,993.97
2015,08,29,11,47,993.97
2015,08,29,11,48,993.97
2015,08,29,11,49,993.97
2015,08,29,11,50,993.97
2015,08,29,11,51,993.97
2015,08,29,11,52,993.97
2015,08,29,11,53,993.97
2015,08,29,11,54,993.97
2015,08,29,11,55,993.97
2015,08,29,11,56,993.97
2015,08,29,11,57,993.97
2015,08,29,11,58,993.97
2015,08,29,11,59,993.97
2015,08,29,12,00,994.41
2015,08,29,12,01,994.41
2015,08,29,12,02,994.41
2015,08,29,12,03,994.41
2015,08,29,12,04,994.41
2015,08,29,12,05,994.41
2015,08,29,12,06,994.41
2015,08,29,12,07,994.41
2015,08,29,12,08,994.41
2015,08,29,12,09,994.41
2015,08,29,12,10,994.41
2015,08,29,12,11,994.41
2015,08,29,12,12,994.41
2015,08,29,12,13,994.41
2015,08,29,12,14,994.41
2015,08,29,12,15,995.09
2015,08,29,12,16,995.09
2015,08,29,12,17,995.09
2015,08,29,12,18,995.09
2015,08,29,12,19,995.09
2015,08,29,12,20,995.09
2015,08,29,12,21,995.09
2015,08,29,12,22,995.09
2015,08,29,12,23,995.09
2015,08,29,12,24,995.09
2015,08,29,12,25,995.09
2015,08,29,12,26,995.09
2015,08,29,12,27,995.09
2015,08,29,12,28,995.09
2015,08,29,12,29,995.09
2015,08,29,12,30,994.99
2015,08,29,12,31,994.99
2015,08,29,12,32,994.99
2015,08,29,12,33,994.99
2015,08,29,12,34,994.99
2015,08,29,12,35,994.99
2015,08,29,12,36,994.99
2015,08,29,12,37,994.99
2015,08,29,12,38,994.99
2015,08,29,12,39,994.99
2015,08,29,12,40,994.99
2015,08,29,12,41,994.99
2015,08,29,12,42,994.99
2015,08,29,12,43,994.99
2015,08,29,12,44,994.99
2015,08,29,12,45,995.67
2015,08,29,12,46,995.67
2015,08,29,12,47,995.67
2015,08,29,12,48,995.67
2015,08,29,12,49,995.67
2015,08,29,12,50,995.67
2015,08,29,12,51,995.67
2015,08,29,12,52,995.67
2015,08,29,12,53,995.67
2015,08,29,12,54,995.67
2015,08,29,12,55,995.67
2015,08,29,12,56,995.67
2015,08,29,12,57,995.67
2015,08,29,12,58,995.67
2015,08,29,12,59,995.69
2015,08,29,13,00,996.14
2015,08,29,13,01,996.14
2015,08,29,13,02,996.14
2015,08,29,13,03,996.14
2015,08,29,13,04,996.14
2015,08,29,13,05,996.14
2015,08,29,13,06,996.14
2015,08,29,13,07,996.14
2015,08,29,13,08,996.14
2015,08,29,13,09,996.14
2015,08,29,13,10,996.14
2015,08,29,13,11,996.14
2015,08,29,13,12,996.14
2015,08,29,13,13,996.14
2015,08,29,13,14,996.19
2015,08,29,13,15,997.16
2015,08,29,13,16,997.16
2015,08,29,13,17,997.16
2015,08,29,13,18,997.16
2015,08,29,13,19,997.16
2015,08,29,13,20,997.16
2015,08,29,13,21,997.16
2015,08,29,13,22,997.16
2015,08,29,13,23,997.16
2015,08,29,13,24,997.16
2015,08,29,13,25,997.16
2015,08,29,13,26,997.16
2015,08,29,13,27,997.16
2015,08,29,13,28,997.16
2015,08,29,13,29,997.16
2015,08,29,13,30,997.53
2015,08,29,13,31,997.53
2015,08,29,13,32,997.53
2015,08,29,13,33,997.53
2015,08,29,13,34,997.53
2015,08,29,13,35,997.53
2015,08,29,13,36,997.53
2015,08,29,13,37,997.53
2015,08,29,13,38,997.53
2015,08,29,13,39,997.53
2015,08,29,13,40,997.53
2015,08,29,13,41,997.53
2015,08,29,13,42,997.53
2015,08,29,13,43,997.53
2015,08,29,13,44,997.53
2015,08,29,13,45,998.34
2015,08,29,13,46,998.34
2015,08,29,13,47,998.34
2015,08,29,13,48,998.34
2015,08,29,13,49,998.34
2015,08,29,13,50,998.34
2015,08,29,13,51,998.34
2015,08,29,13,52,998.34
2015,08,29,13,53,998.34
2015,08,29,13,54,998.34
2015,08,29,13,55,998.34
2015,08,29,13,56,998.34
2015,08,29,13,57,998.34
2015,08,29,13,58,998.34
2015,08,29,13,59,998.34
2015,08,29,14,00,999.09
2015,08,29,14,01,999.09
2015,08,29,14,02,999.09
2015,08,29,14,03,999.09
2015,08,29,14,04,999.09
2015,08,29,14,05,999.09
2015,08,29,14,06,999.09
2015,08,29,14,07,999.09
2015,08,29,14,08,999.09
2015,08,29,14,09,999.09
2015,08,29,14,10,999.09
2015,08,29,14,11,999.09
2015,08,29,14,12,999.09
2015,08,29,14,13,999.09
2015,08,29,14,14,999.09
2015,08,29,14,15,999.56
2015,08,29,14,16,999.56
2015,08,29,14,17,999.56
2015,08,29,14,18,999.56
2015,08,29,14,19,999.56
2015,08,29,14,20,999.56
2015,08,29,14,21,999.56
2015,08,29,14,22,999.56
2015,08,29,14,23,999.56
2015,08,29,14,24,999.56
2015,08,29,14,25,999.56
2015,08,29,14,26,999.56
2015,08,29,14,27,999.56
2015,08,29,14,28,999.56
2015,08,29,14,29,999.56
2015,08,29,14,30,999.43
2015,08,29,14,31,999.43
2015,08,29,14,32,999.43
2015,08,29,14,33,999.43
2015,08,29,14,34,999.43
2015,08,29,14,35,999.43
2015,08,29,14,36,999.43
2015,08,29,14,37,999.43
2015,08,29,14,38,999.43
2015,08,29,14,39,999.43
2015,08,29,14,40,999.43
2015,08,29,14,41,999.43
2015,08,29,14,42,999.43
2015,08,29,14,43,999.43
2015,08,29,14,44,999.43
2015,08,29,14,45,999.76
2015,08,29,14,46,999.76
2015,08,29,14,47,999.76
2015,08,29,14,48,999.76
2015,08,29,14,49,999.76
2015,08,29,14,50,999.76
2015,08,29,14,51,999.76
2015,08,29,14,52,999.76
2015,08,29,14,53,999.76
2015,08,29,14,54,999.76
2015,08,29,14,55,999.76
2015,08,29,14,56,999.76
2015,08,29,14,57,999.76
2015,08,29,14,58,999.76
2015,08,29,14,59,999.77
2015,08,29,15,00,1000.03
2015,08,29,15,01,1000.03
2015,08,29,15,02,1000.03
2015,08,29,15,03,1000.03
2015,08,29,15,04,1000.03
2015,08,29,15,05,1000.03
2015,08,29,15,06,1000.03
2015,08,29,15,07,1000.03
2015,08,29,15,08,1000.03
2015,08,29,15,09,1000.03
2015,08,29,15,10,1000.03
2015,08,29,15,11,1000.03
2015,08,29,15,12,1000.03
2015,08,29,15,13,1000.03
2015,08,29,15,14,1000.05
2015,08,29,15,15,1000.44
2015,08,29,15,16,1000.44
2015,08,29,15,17,1000.44
2015,08,29,15,18,1000.44
2015,08,29,15,19,1000.44
2015,08,29,15,20,1000.44
2015,08,29,15,21,1000.44
2015,08,29,15,22,1000.44
2015,08,29,15,23,1000.44
2015,08,29,15,24,1000.44
2015,08,29,15,25,1000.44
2015,08,29,15,26,1000.44
2015,08,29,15,27,1000.44
2015,08,29,15,28,1000.44
2015,08,29,15,29,1000.44
2015,08,29,15,30,1000.48
2015,08,29,15,31,1000.48
2015,08,29,15,32,1000.48
2015,08,29,15,33,1000.48
2015,08,29,15,34,1000.48
2015,08,29,15,35,1000.48
2015,08,29,15,36,1000.48
2015,08,29,15,37,1000.48
2015,08,29,15,38,1000.48
2015,08,29,15,39,1000.48
2015,08,29,15,40,1000.48
2015,08,29,15,41,1000.48
2015,08,29,15,42,1000.48
2015,08,29,15,43,1000.48
2015,08,29,15,44,1000.48
2015,08,29,15,45,1000.88
2015,08,29,15,46,1000.88
2015,08,29,15,47,1000.88
2015,08,29,15,48,1000.88
2015,08,29,15,49,1000.88
2015,08,29,15,50,1000.88
2015,08,29,15,51,1000.88
2015,08,29,15,52,1000.88
2015,08,29,15,53,1000.88
2015,08,29,15,54,1000.88
2015,08,29,15,55,1000.88
2015,08,29,15,56,1000.88
2015,08,29,15,57,1000.88
2015,08,29,15,58,1000.88
2015,08,29,15,59,1000.88
2015,08,29,16,00,1001.02
2015,08,29,16,01,1001.02
2015,08,29,16,02,1001.02
2015,08,29,16,03,1001.02
2015,08,29,16,04,1001.02
2015,08,29,16,05,1001.02
2015,08,29,16,06,1001.02
2015,08,29,16,07,1001.02
2015,08,29,16,08,1001.02
2015,08,29,16,09,1001.02
2015,08,29,16,10,1001.02
2015,08,29,16,11,1001.02
2015,08,29,16,12,1001.02
2015,08,29,16,13,1001.02
2015,08,29,16,14,1001.02
2015,08,29,16,15,1001.42
2015,08,29,16,16,1001.42
2015,08,29,16,17,1001.42
2015,08,29,16,18,1001.42
2015,08,29,16,19,1001.42
2015,08,29,16,20,1001.42
2015,08,29,16,21,1001.42
2015,08,29,16,22,1001.42
2015,08,29,16,23,1001.42
2015,08,29,16,24,1001.42
2015,08,29,16,25,1001.42